User: anonymous   Login
Location: Oshawa
(43.9000°N, 78.8670°W)
Time: 11:55:17
(UTC-05:00)
Language:

Cosmos 1500 - Orbit

View from above orbital plane
View from above orbital plane
View from above satellite
View from above satellite

Ground track
Ground track

The orbit data is extracted from the following two-line orbital elements,

1 14372U 83099A   17347.96432240 +.00000670 +00000-0 +31450-4 0  9998
2 14372 082.5139 165.9078 0015474 175.5400 336.0548 15.17779047864764
Epoch (UTC): 13 December 2017 23:08:37
Eccentricity: 0.0015474
inclination: 82.5139°
perigee height: 502 km
apogee height: 523 km
right ascension of ascending node: 165.9078°
argument of perigee: 175.5400°
revolutions per day: 15.17779047
mean anomaly at epoch: 336.0548°
orbit number at epoch: 86476

The dashed part of the orbit path shows where the satellite is in the earth's shadow,  

DLR